Location: Pasarilla del Rebollar
(40.6790°N, 5.0062°W)
Time: 10:43:31
(UTC+00:00)

Cosmos 1503 Rocket - Pass Details

Date: 22 April 2026
Orbit: 748 x 786 km, 74.0° (Epoch: 15 May)

Event Time Altitude Azimuth Distance (km) Brightness Sun altitude
Rises 02:28:49 0° 343° (NNW) 3,253 7.7 -29.2°
Reaches altitude 10° 02:31:15 10° 347° (NNW) 2,316 6.9 -28.9°
Maximum altitude 02:36:27 63° 68° (ENE) 847 4.3 -28.3°
Enters shadow 02:37:01 59° 102° (ESE) 877 4.3 -28.2°
